Tiempo cada hora Ababuj

Hoy, 24 Octubre, Sábado

Tiempo Temperatura Precipitaciones Viento Presión Humedad
00:00 +4°C° 0 mm 2 mps 649 mmHg 89%
01:00 +4°C° 0 mm 2 mps 649 mmHg 90%
02:00 +3°C° 0 mm 2 mps 649 mmHg 90%
03:00 +3°C° 0 mm 2 mps 649 mmHg 90%
04:00 +3°C° 0 mm 2 mps 649 mmHg 89%
05:00 +3°C° 0 mm 2 mps 649 mmHg 89%
06:00 +2°C° 0 mm 2 mps 649 mmHg 88%
07:00 +4°C° 0 mm 2 mps 650 mmHg 77%
08:00 +7°C° 0 mm 2 mps 650 mmHg 67%
09:00 +9°C° 0 mm 2 mps 651 mmHg 56%
10:00 +10°C° 0 mm 3 mps 651 mmHg 50%
11:00 +12°C° 0 mm 3 mps 651 mmHg 44%
12:00 +13°C° 0 mm 3 mps 652 mmHg 37%
13:00 +14°C° 0 mm 3 mps 651 mmHg 36%
14:00 +14°C° 0 mm 4 mps 651 mmHg 36%
15:00 +15°C° 0 mm 5 mps 651 mmHg 35%
16:00 +13°C° 0 mm 4 mps 650 mmHg 43%
17:00 +11°C° 0 mm 4 mps 649 mmHg 50%
18:00 +8°C° 0 mm 4 mps 649 mmHg 58%
19:00 +7°C° 0 mm 4 mps 648 mmHg 61%
20:00 +6°C° 0 mm 4 mps 648 mmHg 65%
21:00 +7°C° 0 mm 3 mps 648 mmHg 68%
22:00 +5°C° 0 mm 3 mps 648 mmHg 70%
23:00 +5°C° 0 mm 4 mps 648 mmHg 73%

Mañana, 25 Octubre, Domingo

Tiempo Temperatura Precipitaciones Viento Presión Humedad
00:00 +5°C° 0 mm 4 mps 648 mmHg 75%
01:00 +5°C° 0 mm 4 mps 647 mmHg 74%
02:00 +5°C° 0 mm 4 mps 647 mmHg 72%
03:00 +5°C° 0 mm 5 mps 647 mmHg 71%
04:00 +3°C° 0 mm 5 mps 646 mmHg 70%
05:00 +3°C° 0 mm 5 mps 646 mmHg 70%
06:00 +3°C° 0 mm 5 mps 646 mmHg 70%
07:00 +5°C° 0 mm 6 mps 646 mmHg 65%
08:00 +6°C° 0 mm 7 mps 647 mmHg 59%
09:00 +9°C° 0 mm 8 mps 647 mmHg 53%
10:00 +10°C° 0 mm 9 mps 647 mmHg 49%
11:00 +11°C° 0 mm 10 mps 647 mmHg 44%
12:00 +13°C° 0 mm 11 mps 647 mmHg 40%
13:00 +12°C° 0 mm 10 mps 646 mmHg 46%
14:00 +12°C° 0 mm 10 mps 646 mmHg 51%
15:00 +12°C° 0 mm 10 mps 645 mmHg 56%
16:00 +11°C° 0 mm 9 mps 644 mmHg 62%
17:00 +10°C° 0 mm 8 mps 644 mmHg 68%
18:00 +9°C° 0 mm 8 mps 644 mmHg 74%
19:00 +9°C° 0 mm 7 mps 644 mmHg 76%
20:00 +8°C° 0 mm 7 mps 644 mmHg 78%
21:00 +8°C° 0 mm 6 mps 644 mmHg 80%
22:00 +7°C° 0.2 mm 6 mps 644 mmHg 81%
23:00 +5°C° 0.2 mm 6 mps 643 mmHg 81%

Pasado mañana, 26 Octubre, Lunes

Tiempo Temperatura Precipitaciones Viento Presión Humedad
00:00 +5°C° 0.2 mm 5 mps 643 mmHg 81%
01:00 +3°C° 0.2 mm 6 mps 643 mmHg 83%
02:00 +3°C° 0.2 mm 6 mps 642 mmHg 85%
03:00 +2°C° 0.2 mm 6 mps 642 mmHg 87%
04:00 +1°C° 0.1 mm 5 mps 642 mmHg 85%
05:00 +1°C° 0.1 mm 5 mps 642 mmHg 82%
06:00 +1°C° 0.1 mm 5 mps 642 mmHg 80%
07:00 +1°C° 0 mm 6 mps 643 mmHg 76%
08:00 0°C° 0 mm 8 mps 643 mmHg 73%
09:00 +1°C° 0 mm 9 mps 644 mmHg 69%
10:00 +2°C° 0 mm 9 mps 644 mmHg 63%
11:00 +3°C° 0 mm 10 mps 644 mmHg 57%
12:00 +5°C° 0 mm 10 mps 645 mmHg 51%
13:00 +5°C° 0 mm 10 mps 644 mmHg 51%
14:00 +5°C° 0 mm 10 mps 644 mmHg 51%
15:00 +3°C° 0 mm 10 mps 644 mmHg 51%
16:00 +2°C° 0 mm 9 mps 644 mmHg 56%
17:00 +1°C° 0 mm 8 mps 644 mmHg 61%
18:00 +1°C° 0 mm 6 mps 645 mmHg 65%
19:00 +1°C° 0 mm 6 mps 645 mmHg 68%
20:00 +1°C° 0 mm 6 mps 645 mmHg 70%
21:00 0°C° 0 mm 5 mps 645 mmHg 72%
22:00 0°C° 0 mm 5 mps 645 mmHg 75%
23:00 0°C° 0 mm 4 mps 646 mmHg 79%

, 27 Octubre, Martes

Tiempo Temperatura Precipitaciones Viento Presión Humedad
00:00 -1°C° 0 mm 4 mps 646 mmHg 82%
01:00 0°C° 0 mm 3 mps 645 mmHg 83%
02:00 0°C° 0 mm 3 mps 645 mmHg 84%
03:00 -1°C° 0 mm 3 mps 645 mmHg 86%
04:00 -1°C° 0 mm 3 mps 645 mmHg 85%
05:00 -1°C° 0 mm 2 mps 645 mmHg 84%
06:00 -1°C° 0 mm 2 mps 645 mmHg 82%
07:00 +1°C° 0 mm 3 mps 645 mmHg 74%
08:00 +2°C° 0 mm 3 mps 646 mmHg 65%
09:00 +4°C° 0 mm 4 mps 647 mmHg 56%
10:00 +5°C° 0 mm 4 mps 647 mmHg 52%
11:00 +7°C° 0 mm 4 mps 647 mmHg 47%
12:00 +8°C° 0 mm 4 mps 647 mmHg 43%
13:00 +8°C° 0 mm 5 mps 647 mmHg 47%
14:00 +8°C° 0 mm 5 mps 647 mmHg 51%
15:00 +8°C° 0 mm 5 mps 646 mmHg 55%
16:00 +7°C° 0 mm 5 mps 646 mmHg 61%
17:00 +6°C° 0 mm 4 mps 646 mmHg 66%
18:00 +5°C° 0 mm 4 mps 646 mmHg 72%
19:00 +5°C° 0 mm 3 mps 646 mmHg 75%
20:00 +4°C° 0 mm 3 mps 646 mmHg 78%
21:00 +5°C° 0 mm 2 mps 646 mmHg 81%
22:00 +5°C° 0 mm 2 mps 646 mmHg 82%
23:00 +5°C° 0 mm 2 mps 646 mmHg 82%

27 Octubre, Martes

Tiempo Temperatura Precipitaciones Viento Presión Humedad
00:00 -1°C° 0 mm 4 mps 646 mmHg 82%
01:00 0°C° 0 mm 3 mps 645 mmHg 83%
02:00 0°C° 0 mm 3 mps 645 mmHg 84%
03:00 -1°C° 0 mm 3 mps 645 mmHg 86%
04:00 -1°C° 0 mm 3 mps 645 mmHg 85%
05:00 -1°C° 0 mm 2 mps 645 mmHg 84%
06:00 -1°C° 0 mm 2 mps 645 mmHg 82%
07:00 +1°C° 0 mm 3 mps 645 mmHg 74%
08:00 +2°C° 0 mm 3 mps 646 mmHg 65%
09:00 +4°C° 0 mm 4 mps 647 mmHg 56%
10:00 +5°C° 0 mm 4 mps 647 mmHg 52%
11:00 +7°C° 0 mm 4 mps 647 mmHg 47%
12:00 +8°C° 0 mm 4 mps 647 mmHg 43%
13:00 +8°C° 0 mm 5 mps 647 mmHg 47%
14:00 +8°C° 0 mm 5 mps 647 mmHg 51%
15:00 +8°C° 0 mm 5 mps 646 mmHg 55%
16:00 +7°C° 0 mm 5 mps 646 mmHg 61%
17:00 +6°C° 0 mm 4 mps 646 mmHg 66%
18:00 +5°C° 0 mm 4 mps 646 mmHg 72%
19:00 +5°C° 0 mm 3 mps 646 mmHg 75%
20:00 +4°C° 0 mm 3 mps 646 mmHg 78%
21:00 +5°C° 0 mm 2 mps 646 mmHg 81%
22:00 +5°C° 0 mm 2 mps 646 mmHg 82%
23:00 +5°C° 0 mm 2 mps 646 mmHg 82%

28 Octubre, Miércoles

Tiempo Temperatura Precipitaciones Viento Presión Humedad
00:00 +4°C° 0 mm 2 mps 646 mmHg 83%
01:00 +5°C° 0 mm 2 mps 646 mmHg 82%
02:00 +5°C° 0 mm 2 mps 646 mmHg 81%
03:00 +6°C° 0 mm 2 mps 646 mmHg 79%
04:00 +5°C° 0 mm 2 mps 646 mmHg 81%
05:00 +5°C° 0 mm 2 mps 646 mmHg 83%
06:00 +5°C° 0 mm 2 mps 646 mmHg 85%
07:00 +7°C° 0 mm 2 mps 647 mmHg 78%
08:00 +9°C° 0 mm 2 mps 648 mmHg 71%
09:00 +11°C° 0 mm 3 mps 649 mmHg 64%
10:00 +12°C° 0 mm 3 mps 649 mmHg 59%
11:00 +14°C° 0 mm 3 mps 649 mmHg 54%
12:00 +15°C° 0 mm 4 mps 650 mmHg 49%
13:00 +15°C° 0 mm 4 mps 649 mmHg 46%
14:00 +15°C° 0 mm 4 mps 649 mmHg 44%
15:00 +15°C° 0 mm 4 mps 649 mmHg 42%
16:00 +13°C° 0 mm 3 mps 648 mmHg 54%
17:00 +12°C° 0 mm 2 mps 648 mmHg 65%
18:00 +8°C° 0 mm 2 mps 647 mmHg 76%
19:00 +9°C° 0 mm 1 mps 647 mmHg 79%
20:00 +8°C° 0 mm 1 mps 648 mmHg 82%
21:00 +7°C° 0 mm 1 mps 648 mmHg 84%
22:00 +7°C° 0 mm 1 mps 648 mmHg 85%
23:00 +7°C° 0 mm 1 mps 648 mmHg 85%

29 Octubre, Jueves

Tiempo Temperatura Precipitaciones Viento Presión Humedad
00:00 +7°C° 0 mm 1 mps 648 mmHg 86%
01:00 +7°C° 0 mm 1 mps 648 mmHg 86%
02:00 +6°C° 0 mm 1 mps 648 mmHg 86%
03:00 +6°C° 0 mm 1 mps 648 mmHg 87%
04:00 +6°C° 0 mm 1 mps 648 mmHg 87%
05:00 +5°C° 0 mm 1 mps 648 mmHg 86%
06:00 +5°C° 0 mm 1 mps 648 mmHg 86%
07:00 +7°C° 0 mm 1 mps 649 mmHg 79%
08:00 +9°C° 0 mm 1 mps 650 mmHg 72%
09:00 +10°C° 0 mm 2 mps 651 mmHg 65%
10:00 +13°C° 0 mm 2 mps 652 mmHg 57%
11:00 +13°C° 0 mm 3 mps 652 mmHg 49%
12:00 +15°C° 0 mm 4 mps 652 mmHg 41%
13:00 +15°C° 0 mm 4 mps 652 mmHg 41%
14:00 +15°C° 0 mm 4 mps 652 mmHg 40%
15:00 +17°C° 0 mm 4 mps 652 mmHg 40%
16:00 +14°C° 0 mm 4 mps 651 mmHg 49%
17:00 +11°C° 0 mm 3 mps 651 mmHg 59%
18:00 +9°C° 0 mm 2 mps 650 mmHg 68%
19:00 +9°C° 0 mm 2 mps 650 mmHg 72%
20:00 +8°C° 0 mm 2 mps 650 mmHg 76%
21:00 +8°C° 0 mm 2 mps 650 mmHg 79%
22:00 +7°C° 0 mm 2 mps 650 mmHg 81%
23:00 +7°C° 0 mm 2 mps 650 mmHg 82%
Mostrar más

Necesitamos Su Consentimiento

Meteoprog y nuestros Proveedores de Servicios pueden almacenar y acceder a sus datos personales como cookies, identificadores de dispositivo u otras tecnologías similares de su dispositivo y procesar dichos datos para personalizar contenido y anuncios, además de ofrecer funciones de redes sociales y analizar el tráfico.

  • Almacenar y/o acceder a información en su dispositivo

    Se puede almacenar o acceder a cookies, identificadores de dispositivo u otra información de su dispositivo para los fines anteriormente indicados.

  • Anuncios y contenido personalizados, medición de anuncios y contenido, percepciones del público, y desarrollo de productos

    Los anuncios y el contenido pueden personalizarse en base a su perfil. Se pueden añadir más datos para personalizar mejor los anuncios y contenidos. Se puede medir el rendimiento de los anuncios y contenidos. Se puede obtener la percepción sobre el público que ha visto los anuncios y contenidos. Dichos datos pueden usarse para desarrollar o mejorar la experiencia del usuario, sistemas y software.

Al hacer clic en ‘Estoy De Acuerdo’ usted permitirá el uso de las cookies, identificadores de dispositivo, balizas web u otras tecnologías similares indicadas. Su configuración puede cambiarse desde el navegador de su dispositivo.

Para ciertos fines, los intereses legítimos pueden ser considerados por encima del consentimiento. Puede leer más sobre ello en nuestra Política de Privacidad y Cookies.